EW5168 Weather Reports


Display with metric or nautical units.
time (UTC)temp
F
wind
direction
speed
MPH
gust
MPH
rain 1hr
in
rain 24hr
in
rain mn
in
humidity
%
barometer
mb
20260831222024 99 99 2.0 10.0 0.00 0.00 0.00 29 1013.4
20260831221524 98 121 2.0 9.0 0.00 0.00 0.00 29 1013.3
20260831221023 98 225 1.0 5.0 0.00 0.00 0.00 30 1013.3
20260831220523 99 141 2.0 5.0 0.00 0.00 0.00 31 1013.3
20260831220022 99 84 2.0 8.0 0.00 0.00 0.00 31 1013.4
20260831215522 99 227 2.0 8.0 0.00 0.00 0.00 31 1013.5
20260831215022 99 103 2.0 8.0 0.00 0.00 0.00 31 1013.5
20260831214520 99 186 2.0 9.0 0.00 0.00 0.00 30 1013.5
20260831214020 100 146 3.0 9.0 0.00 0.00 0.00 30 1013.6
20260831213518 100 155 3.0 9.0 0.00 0.00 0.00 30 1013.6
20260831213020 100 84 2.0 6.0 0.00 0.00 0.00 30 1013.6
20260831213016 100 84 2.0 6.0 0.00 0.00 0.00 30 1013.6
20260831212620 101 307 2.0 6.0 0.00 0.00 0.00 31 1013.7
20260831211512 101 109 3.0 8.0 0.00 0.00 0.00 30 1013.7
20260831211017 101 156 2.0 9.0 0.00 0.00 0.00 30 1014.0
20260831211013 101 185 3.0 9.0 0.00 0.00 0.00 29 1013.9
20260831210011 100 55 3.0 9.0 0.00 0.00 0.00 28 1014.1
20260831205510 100 136 4.0 10.0 0.00 0.00 0.00 28 1014.1
20260831205013 101 132 4.0 14.0 0.00 0.00 0.00 30 1014.4
20260831205009 101 177 4.0 11.0 0.00 0.00 0.00 29 1014.3
20260831204008 100 221 4.0 14.0 0.00 0.00 0.00 31 1014.5
20260831203512 101 113 2.0 7.0 0.00 0.00 0.00 30 1014.7
20260831203508 100 207 3.0 9.0 0.00 0.00 0.00 30 1014.6
20260831202512 100 96 4.0 11.0 0.00 0.00 0.00 30 1014.8
20260831202508 101 106 3.0 11.0 0.00 0.00 0.00 31 1014.8
20260831201506 100 152 3.0 10.0 0.00 0.00 0.00 30 1014.9
20260831201007 99 109 3.0 10.0 0.00 0.00 0.00 32 1014.9
20260831200505 99 135 3.0 10.0 0.00 0.00 0.00 31 1015.1
20260831200005 100 98 3.0 8.0 0.00 0.00 0.00 31 1015.1
20260831195504 100 229 3.0 7.0 0.00 0.00 0.00 31 1015.2
20260831195004 100 102 3.0 8.0 0.00 0.00 0.00 30 1015.2
20260831194504 99 145 3.0 9.0 0.00 0.00 0.00 33 1015.1
20260831194003 100 169 3.0 9.0 0.00 0.00 0.00 31 1015.4
20260831193502 99 165 3.0 9.0 0.00 0.00 0.00 32 1015.4
20260831193002 99 151 3.0 10.0 0.00 0.00 0.00 32 1015.4
20260831192502 99 198 3.0 10.0 0.00 0.00 0.00 31 1015.5
20260831192000 100 137 3.0 10.0 0.00 0.00 0.00 32 1015.5
20260831191459 98 107 3.0 10.0 0.00 0.00 0.00 34 1015.5
20260831190958 98 162 3.0 10.0 0.00 0.00 0.00 32 1015.6
20260831190458 99 95 3.0 11.0 0.00 0.00 0.00 32 1015.7
20260831190000 98 155 3.0 11.0 0.00 0.00 0.00 32 1015.7
20260831185956 99 119 3.0 11.0 0.00 0.00 0.00 32 1015.7
20260831184956 99 82 3.0 11.0 0.00 0.00 0.00 32 1015.8
20260831184455 99 128 3.0 8.0 0.00 0.00 0.00 32 1015.9
20260831183953 98 103 3.0 8.0 0.00 0.00 0.00 33 1015.9
20260831183453 98 105 3.0 14.0 0.00 0.00 0.00 32 1015.9
20260831182952 97 65 5.0 14.0 0.00 0.00 0.00 32 1016.0
20260831182450 97 184 5.0 14.0 0.00 0.00 0.00 32 1016.2
20260831181954 96 117 4.0 12.0 0.00 0.00 0.00 33 1016.2
20260831181950 97 128 4.0 12.0 0.00 0.00 0.00 32 1016.1
20260831180947 96 180 3.0 10.0 0.00 0.00 0.00 33 1016.3
20260831180448 96 94 4.0 12.0 0.00 0.00 0.00 32 1016.4
20260831175948 96 165 4.0 12.0 0.00 0.00 0.00 32 1016.5
20260831175448 95 168 5.0 13.0 0.00 0.00 0.00 33 1016.5
20260831174948 95 197 5.0 13.0 0.00 0.00 0.00 33 1016.7
20260831174448 95 153 4.0 11.0 0.00 0.00 0.00 32 1016.8
20260831173947 95 146 5.0 11.0 0.00 0.00 0.00 32 1016.8
20260831173447 94 173 5.0 11.0 0.00 0.00 0.00 32 1016.9
20260831172948 94 181 4.0 11.0 0.00 0.00 0.00 31 1017.1
20260831172448 94 201 3.0 11.0 0.00 0.00 0.00 31 1017.1
20260831171952 94 240 3.0 11.0 0.00 0.00 0.00 30 1017.1
20260831171947 94 180 2.0 9.0 0.00 0.00 0.00 30 1017.1
20260831171553 93 339 3.0 11.0 0.00 0.00 0.00 30 1017.1
20260831170448 93 175 3.0 6.0 0.00 0.00 0.00 29 1017.2
20260831165948 93 83 3.0 7.0 0.00 0.00 0.00 29 1017.3
20260831165447 93 157 3.0 8.0 0.00 0.00 0.00 29 1017.2
20260831164946 92 167 3.0 8.0 0.00 0.00 0.00 29 1017.3
20260831164450 92 148 3.0 11.0 0.00 0.00 0.00 28 1017.3
20260831164446 92 133 4.0 11.0 0.00 0.00 0.00 29 1017.2
20260831163448 91 199 3.0 10.0 0.00 0.00 0.00 26 1017.4
20260831163444 92 178 3.0 10.0 0.00 0.00 0.00 27 1017.4
20260831162446 91 191 2.0 7.0 0.00 0.00 0.00 24 1017.3
20260831162442 91 250 2.0 6.0 0.00 0.00 0.00 23 1017.3
20260831161441 91 243 2.0 6.0 0.00 0.00 0.00 23 1017.4
20260831160939 90 239 2.0 6.0 0.00 0.00 0.00 20 1017.3
20260831160439 90 196 2.0 7.0 0.00 0.00 0.00 18 1017.3
20260831155940 89 146 2.0 7.0 0.00 0.00 0.00 18 1017.3
20260831155439 89 152 2.0 7.0 0.00 0.00 0.00 16 1017.3
20260831154938 89 102 3.0 7.0 0.00 0.00 0.00 15 1017.3
20260831154437 89 203 3.0 9.0 0.00 0.00 0.00 15 1017.2
20260831153935 88 173 2.0 9.0 0.00 0.00 0.00 12 1017.2
20260831153435 88 177 2.0 8.0 0.00 0.00 0.00 3 1017.3
20260831152936 87 157 3.0 7.0 0.00 0.00 0.00 1 1017.1
20260831152435 87 163 2.0 7.0 0.00 0.00 0.00 1 1017.0
20260831151936 86 178 1.0 6.0 0.00 0.00 0.00 1 1017.0
20260831151436 86 147 2.0 6.0 0.00 0.00 0.00 1 1017.0
20260831150935 86 196 2.0 7.0 0.00 0.00 0.00 1 1017.0
20260831150437 85 212 3.0 7.0 0.00 0.00 0.00 1 1017.0
20260831145935 85 205 1.0 7.0 0.00 0.00 0.00 1 1017.0
20260831145542 82 179 2.0 8.0 0.00 0.00 0.00 1 1016.9
20260831145436 84 338 1.0 4.0 0.00 0.00 0.00 1 1017.1
20260831144935 84 194 1.0 4.0 0.00 0.00 0.00 1 1017.0
20260831144435 83 232 2.0 8.0 0.00 0.00 0.00 1 1017.0
20260831143939 83 234 2.0 8.0 0.00 0.00 0.00 1 1017.0
20260831143935 82 186 2.0 7.0 0.00 0.00 0.00 1 1016.9
20260831142436 81 211 1.0 8.0 0.00 0.00 0.00 1 1016.9
20260831142432 81 162 2.0 8.0 0.00 0.00 0.00 1 1016.9
20260831141431 81 206 2.0 5.0 0.00 0.00 0.00 1 1016.9
20260831140932 80 161 2.0 6.0 0.00 0.00 0.00 1 1016.8
20260831140427 80 190 2.0 6.0 0.00 0.00 0.00 1 1016.9
20260831135926 80 244 2.0 8.0 0.00 0.00 0.00 1 1016.8
20260831135430 80 197 3.0 8.0 0.00 0.00 0.00 1 1016.7
20260831135426 79 257 3.0 9.0 0.00 0.00 0.00 1 1016.7
20260831135031 79 179 2.0 9.0 0.00 0.00 0.00 1 1016.7
20260831133924 79 182 1.0 5.0 0.00 0.00 0.00 1 1016.6
20260831133421 78 169 2.0 5.0 0.00 0.00 0.00 1 1016.6
20260831132925 78 238 2.0 5.0 0.00 0.00 0.00 1 1016.5
20260831132921 78 207 2.0 8.0 0.00 0.00 0.00 1 1016.6
20260831131917 78 187 2.0 8.0 0.00 0.00 0.00 1 1016.5
20260831131417 77 155 2.0 6.0 0.00 0.00 0.00 1 1016.4
20260831130916 77 213 2.0 6.0 0.00 0.00 0.00 1 1016.4
20260831130415 77 157 3.0 8.0 0.00 0.00 0.00 1 1016.3
20260831125915 77 172 3.0 8.0 0.00 0.00 0.00 1 1016.2
20260831125415 76 159 3.0 6.0 0.00 0.00 0.00 1 1016.3
20260831124918 76 159 3.0 6.0 0.00 0.00 0.00 1 1016.1
20260831124914 76 167 2.0 6.0 0.00 0.00 0.00 1 1016.1
20260831123913 76 165 2.0 5.0 0.00 0.00 0.00 1 1016.1
20260831123412 76 184 2.0 5.0 0.00 0.00 0.00 1 1016.1
20260831122911 76 183 2.0 5.0 0.00 0.00 0.00 1 1016.1
20260831122411 76 165 2.0 5.0 0.00 0.00 0.00 1 1016.1
20260831121911 76 177 2.0 5.0 0.00 0.00 0.00 1 1016.1
20260831121412 76 168 2.0 7.0 0.00 0.00 0.00 1 1016.0
20260831120911 76 144 3.0 7.0 0.00 0.00 0.00 1 1015.9
20260831120413 76 198 2.0 6.0 0.00 0.00 0.00 1 1015.8
20260831115912 76 200 2.0 6.0 0.00 0.00 0.00 1 1015.8
20260831115411 76 175 2.0 6.0 0.00 0.00 0.00 1 1015.7
20260831115015 76 196 3.0 6.0 0.00 0.00 0.00 1 1015.6
20260831114915 76 165 3.0 6.0 0.00 0.00 0.00 1 1015.6
20260831114911 76 187 2.0 5.0 0.00 0.00 0.00 1 1015.7
20260831113409 76 190 2.0 5.0 0.00 0.00 0.00 1 1015.6
20260831112910 76 146 2.0 6.0 0.00 0.00 0.00 1 1015.5
20260831112409 76 168 2.0 6.0 0.00 0.00 0.00 1 1015.5
20260831111909 76 179 2.0 6.0 0.00 0.00 0.00 1 1015.5
20260831111407 76 194 3.0 6.0 0.00 0.00 0.00 1 1015.4
20260831110906 76 197 3.0 6.0 0.00 0.00 0.00 1 1015.4
20260831110407 76 194 2.0 5.0 0.00 0.00 0.00 1 1015.3
20260831105907 76 187 2.0 5.0 0.00 0.00 0.00 1 1015.2
20260831105407 76 211 2.0 5.0 0.00 0.00 0.00 1 1015.2
20260831104908 76 147 3.0 6.0 0.00 0.00 0.00 1 1015.2
20260831104904 77 152 3.0 6.0 0.00 0.00 0.00 1 1015.4
20260831103903 77 182 3.0 7.0 0.00 0.00 0.00 1 1015.3
20260831103403 77 181 3.0 7.0 0.00 0.00 0.00 1 1015.3
20260831102902 77 214 3.0 6.0 0.00 0.00 0.00 1 1015.3
20260831102403 77 207 2.0 6.0 0.00 0.00 0.00 1 1015.3
20260831101901 77 192 2.0 6.0 0.00 0.00 0.00 1 1015.3
20260831101400 77 184 2.0 7.0 0.00 0.00 0.00 1 1015.2
20260831100901 77 163 3.0 8.0 0.00 0.00 0.00 1 1015.3
20260831100401 78 182 3.0 8.0 0.00 0.00 0.00 1 1015.3
20260831095901 78 172 3.0 7.0 0.00 0.00 0.00 1 1015.3
20260831095400 78 167 3.0 7.0 0.00 0.00 0.00 1 1015.2
20260831094901 78 209 3.0 9.0 0.00 0.00 0.00 1 1015.1
20260831094401 78 144 3.0 9.0 0.00 0.00 0.00 1 1015.1
20260831093906 78 213 3.0 9.0 0.00 0.00 0.00 1 1015.1
20260831093902 78 169 3.0 9.0 0.00 0.00 0.00 1 1015.1
20260831092858 79 161 3.0 9.0 0.00 0.00 0.00 1 1015.1
20260831092359 79 184 3.0 7.0 0.00 0.00 0.00 1 1015.1
20260831091857 79 168 3.0 8.0 0.00 0.00 0.00 1 1015.1
20260831091401 79 188 3.0 8.0 0.00 0.00 0.00 1 1015.1
20260831091355 79 163 3.0 7.0 0.00 0.00 0.00 1 1015.1
20260831090354 79 191 3.0 7.0 0.00 0.00 0.00 1 1015.1
20260831085855 79 206 3.0 7.0 0.00 0.00 0.00 1 1015.1
20260831085354 80 196 3.0 8.0 0.00 0.00 0.00 1 1015.0
20260831084853 80 196 2.0 8.0 0.00 0.00 0.00 1 1015.0
20260831084353 80 188 2.0 8.0 0.00 0.00 0.00 1 1015.0
20260831083852 80 202 3.0 6.0 0.00 0.00 0.00 1 1015.0
20260831083357 80 186 3.0 7.0 0.00 0.00 0.00 1 1015.0
20260831083353 80 180 3.0 7.0 0.00 0.00 0.00 1 1014.9
20260831082958 80 199 2.0 7.0 0.00 0.00 0.00 1 1014.9
20260831081857 81 191 2.0 8.0 0.00 0.00 0.00 1 1014.9
20260831081853 80 175 2.0 7.0 0.00 0.00 0.00 1 1014.9
20260831080852 81 183 3.0 8.0 0.00 0.00 0.00 1 1015.0
20260831080353 81 149 3.0 8.0 0.00 0.00 0.00 1 1015.0
20260831075853 81 190 3.0 8.0 0.00 0.00 0.00 1 1014.9
20260831075352 81 217 2.0 8.0 0.00 0.00 0.00 1 1015.0
20260831074852 82 198 2.0 6.0 0.00 0.00 0.00 1 1015.0
20260831074352 82 159 2.0 7.0 0.00 0.00 0.00 1 1015.0
20260831073853 82 157 3.0 7.0 0.00 0.00 0.00 1 1015.1
20260831073352 82 132 3.0 9.0 0.00 0.00 0.00 1 1015.1
20260831072853 82 202 3.0 9.0 0.00 0.00 0.00 1 1015.1
20260831072353 82 186 3.0 7.0 0.00 0.00 0.00 1 1015.1
20260831071853 82 171 2.0 6.0 0.00 0.00 0.00 1 1015.2
20260831071352 83 211 3.0 8.0 0.00 0.00 0.00 1 1015.2
20260831070851 83 211 3.0 8.0 0.00 0.00 0.00 2 1015.2
20260831070347 83 202 3.0 11.0 0.00 0.00 0.00 4 1015.2
20260831065846 83 171 4.0 11.0 0.00 0.00 0.00 5 1015.2
20260831065343 83 218 4.0 10.0 0.00 0.00 0.00 6 1015.2
20260831064842 83 184 3.0 7.0 0.00 0.00 0.00 8 1015.1
20260831064343 83 165 3.0 10.0 0.00 0.00 0.00 9 1015.2
20260831063842 83 195 4.0 10.0 0.00 0.00 0.00 11 1015.1
20260831063342 83 215 4.0 9.0 0.00 0.00 0.00 12 1015.1
20260831062842 84 154 3.0 9.0 0.00 0.00 0.00 14 1015.1
20260831062340 84 217 3.0 8.0 0.00 0.00 0.00 15 1015.0
20260831061841 84 210 3.0 7.0 0.00 0.00 0.00 17 1015.1
20260831061341 84 168 3.0 9.0 0.00 0.00 0.00 19 1015.0
20260831060842 84 193 3.0 8.0 0.00 0.00 0.00 23 1015.0
20260831060838 84 212 3.0 9.0 0.00 0.00 0.00 21 1015.0
20260831055838 84 153 3.0 6.0 0.00 0.00 0.00 26 1015.1
20260831055343 84 166 3.0 7.0 0.00 0.00 0.00 29 1015.1
20260831055339 84 196 2.0 7.0 0.00 0.00 0.00 27 1015.1
20260831054337 84 172 2.0 7.0 0.00 0.00 0.00 31 1015.1
20260831053836 84 208 2.0 6.0 0.00 0.00 0.00 33 1015.1
20260831053336 84 200 2.0 8.0 0.00 0.00 0.00 34 1015.1
20260831052836 84 186 2.0 8.0 0.00 0.00 0.00 35 1015.1
20260831052336 84 182 2.0 6.0 0.00 0.00 0.00 36 1015.0
20260831051836 84 145 2.0 6.0 0.00 0.00 0.00 37 1015.0
20260831051336 85 161 2.0 6.0 0.00 0.00 0.00 37 1014.9
20260831050836 85 191 2.0 6.0 0.00 0.00 0.00 38 1015.0
20260831050334 85 163 2.0 6.0 0.00 0.00 0.00 39 1015.0
20260831045834 85 160 2.0 6.0 0.00 0.00 0.00 39 1015.0
20260831045333 85 178 2.0 5.0 0.00 0.00 0.00 40 1015.0
20260831044831 85 187 3.0 7.0 0.00 0.00 0.00 40 1015.0
20260831044332 85 184 3.0 9.0 0.00 0.00 0.00 41 1014.9
20260831043832 86 211 2.0 9.0 0.00 0.00 0.00 41 1014.9
20260831043332 86 186 2.0 7.0 0.00 0.00 0.00 42 1014.8
20260831042832 86 166 2.0 7.0 0.00 0.00 0.00 42 1014.8
20260831042329 86 170 2.0 7.0 0.00 0.00 0.00 42 1014.7
20260831041830 86 169 2.0 7.0 0.00 0.00 0.00 42 1014.7
20260831041826 86 74 2.0 7.0 0.00 0.00 0.00 42 1014.6
20260831040826 86 167 2.0 7.0 0.00 0.00 0.00 43 1014.6
20260831040323 86 150 2.0 7.0 0.00 0.00 0.00 43 1014.6
20260831035825 86 188 2.0 7.0 0.00 0.00 0.00 43 1014.5
20260831035326 86 183 1.0 5.0 0.00 0.00 0.00 43 1014.5
20260831035322 86 188 1.0 4.0 0.00 0.00 0.00 43 1014.4
20260831034326 87 159 1.0 5.0 0.00 0.00 0.00 43 1014.2
20260831034321 86 161 1.0 4.0 0.00 0.00 0.00 43 1014.2
20260831033320 87 188 1.0 5.0 0.00 0.00 0.00 43 1014.2
20260831032820 87 202 1.0 5.0 0.00 0.00 0.00 43 1014.1
20260831032318 87 172 1.0 5.0 0.00 0.00 0.00 43 1014.1
20260831031817 87 187 1.0 5.0 0.00 0.00 0.00 43 1014.1
20260831031321 87 158 1.0 6.0 0.00 0.00 0.00 43 1014.0
20260831031317 87 200 1.0 6.0 0.00 0.00 0.00 43 1014.1
20260831030316 87 142 1.0 5.0 0.00 0.00 0.00 43 1014.0
20260831025816 87 200 1.0 5.0 0.00 0.00 0.00 43 1013.9
20260831025320 87 189 1.0 4.0 0.00 0.00 0.00 42 1013.7
20260831025315 87 148 1.0 5.0 0.00 0.00 0.00 43 1013.9
20260831024921 88 185 0.0 2.0 0.00 0.00 0.00 42 1013.6
20260831024421 88 175 0.0 1.0 0.00 0.00 0.00 42 1013.5
20260831023313 88 175 0.0 1.0 0.00 0.00 0.00 42 1013.5
20260831022813 88 175 0.0 3.0 0.00 0.00 0.00 42 1013.4
20260831022809 88 175 0.0 3.0 0.00 0.00 0.00 42 1013.3
20260831022414 89 173 0.0 2.0 0.00 0.00 0.00 42 1013.3
20260831021307 89 160 0.0 1.0 0.00 0.00 0.00 42 1013.3
20260831020807 89 160 0.0 1.0 0.00 0.00 0.00 42 1013.2
20260831020303 89 160 0.0 3.0 0.00 0.00 0.00 42 1013.1
20260831015759 89 173 1.0 3.0 0.00 0.00 0.00 42 1013.2
20260831015257 90 172 0.0 2.0 0.00 0.00 0.00 41 1013.1
20260831014757 90 175 0.0 2.0 0.00 0.00 0.00 41 1013.0
20260831014257 90 174 0.0 2.0 0.00 0.00 0.00 41 1013.0
20260831013755 91 158 0.0 1.0 0.00 0.00 0.00 40 1012.9
20260831013254 91 158 0.0 2.0 0.00 0.00 0.00 40 1012.9
20260831012756 91 158 0.0 2.0 0.00 0.00 0.00 40 1012.9
20260831012257 92 158 0.0 2.0 0.00 0.00 0.00 39 1012.9
20260831011755 92 158 1.0 3.0 0.00 0.00 0.00 39 1012.8
20260831011255 92 155 0.0 3.0 0.00 0.00 0.00 38 1012.8
20260831010754 92 161 0.0 2.0 0.00 0.00 0.00 38 1012.7
20260831010253 93 164 0.0 2.0 0.00 0.00 0.00 38 1012.7
20260831005752 93 163 0.0 4.0 0.00 0.00 0.00 37 1012.6
20260831005254 94 167 0.0 4.0 0.00 0.00 0.00 37 1012.6
20260831005250 94 165 1.0 4.0 0.00 0.00 0.00 37 1012.6
20260831004249 94 169 1.0 4.0 0.00 0.00 0.00 36 1012.6
20260831003747 94 160 1.0 7.0 0.00 0.00 0.00 36 1012.5
20260831003247 95 188 1.0 7.0 0.00 0.00 0.00 36 1012.5
20260831002750 95 156 2.0 7.0 0.00 0.00 0.00 35 1012.6
20260831002746 95 146 2.0 7.0 0.00 0.00 0.00 35 1012.5
20260831001747 95 186 3.0 8.0 0.00 0.00 0.00 35 1012.5
20260831001251 95 173 3.0 8.0 0.00 0.00 0.00 35 1012.6
20260831001247 95 171 2.0 8.0 0.00 0.00 0.00 35 1012.5
20260831000251 96 213 3.0 8.0 0.00 0.00 0.00 34 1012.6
20260831000245 96 215 3.0 8.0 0.00 0.00 0.00 34 1012.6
20260830235249 96 182 2.0 7.0 0.00 0.00 0.00 35 1012.7
20260830235245 96 173 3.0 8.0 0.00 0.00 0.00 35 1012.6
20260830234244 96 144 2.0 6.0 0.00 0.00 0.00 35 1012.6
20260830233743 96 200 2.0 8.0 0.00 0.00 0.00 34 1012.6
20260830233242 96 157 2.0 9.0 0.00 0.00 0.00 34 1012.6
20260830232743 97 188 2.0 9.0 0.00 0.00 0.00 34 1012.7
20260830232247 98 116 2.0 7.0 0.00 0.00 0.00 34 1012.7
20260830232243 97 138 2.0 7.0 0.00 0.00 0.00 34 1012.7
20260830231245 98 159 3.0 12.0 0.00 0.00 0.00 33 1012.7
20260830231240 98 134 3.0 12.0 0.00 0.00 0.00 33 1012.7
20260830230239 98 138 3.0 13.0 0.00 0.00 0.00 33 1012.7
20260830225738 98 161 2.0 13.0 0.00 0.00 0.00 33 1012.7
20260830225239 98 200 1.0 8.0 0.00 0.00 0.00 33 1012.7
20260830224739 98 184 2.0 8.0 0.00 0.00 0.00 33 1012.7
20260830224238 98 119 2.0 8.0 0.00 0.00 0.00 32 1012.7
20260830223738 98 96 2.0 8.0 0.00 0.00 0.00 32 1012.8
20260830223236 98 161 2.0 8.0 0.00 0.00 0.00 32 1012.7
20260830222736 98 90 2.0 8.0 0.00 0.00 0.00 32 1012.7